Location: Newark
(55.6150°N, 25.7300°E)
Time: 07:21:01
(UTC+00:00)

Envisat - Visible Passes

Search period start: 01 October 2020 00:00
Search period end: 11 October 2020 00:00
Orbit: 764 x 766 km, 98.1° (Epoch: 01 October)

Date Brightness Start Highest point End Pass type
(mag) Time Alt. Az. Time Alt. Az. Time Alt. Az.
01 Oct 6.1 03:05:46 10° NE 03:09:08 18° E 03:12:30 10° SE visible
02 Oct 6.5 17:12:00 10° WSW 17:14:12 13° W 17:16:26 10° NW visible
03 Oct 5.6 03:30:37 10° NE 03:34:55 27° E 03:39:11 10° SSE visible
03 Oct 5.8 16:32:49 10° SW 16:36:51 23° W 16:40:56 10° NW visible
04 Oct 6.3 02:54:49 10° NE 02:57:36 15° E 03:00:22 10° ESE visible
05 Oct 6.3 16:59:41 10° WSW 17:02:39 15° W 17:05:38 10° NW visible
06 Oct 5.8 03:19:27 10° NE 03:23:25 22° E 03:27:22 10° SE visible
06 Oct 5.5 16:21:02 10° SSW 16:25:22 28° W 16:29:45 10° NNW visible
07 Oct 6.5 02:44:08 10° ENE 02:46:02 12° E 02:47:58 10° ESE visible
08 Oct 5.0 03:44:29 10° NNE 03:49:07 34° E 03:53:43 10° SSE visible
08 Oct 6.1 16:47:37 10° SW 16:51:07 18° W 16:54:39 10° NW visible
09 Oct 6.1 03:08:20 10° NE 03:11:54 19° E 03:15:26 10° SE visible
09 Oct 5.1 16:09:19 10° SSW 16:13:54 33° W 16:18:31 10° NNW visible
10 Oct 6.6 17:15:09 10° WSW 17:16:59 12° W 17:18:49 10° WNW visible
